[[[{"header":{"parameterUnit":"kt","parameterCategory":2,"dx":1,"dy":1,"la1":30.253999710083008,"la2":30.299108505249023,"lo1":-89.0895004272461,"lo2":-89.04439544677734,"nx":28,"ny":28,"refTime":"2022-10-30T21:00:00:Z","depth":0,"parameterNumber":1,"parameterNumberName":"U-component_of_WINDS"},"data":[4.8466,4.8645,4.8698,4.8926,4.9013,4.9178,4.9255,4.9359,4.9456,4.9662,4.9789,4.9862,4.9981,5.0148,5.029,5.0319,5.0376,5.0401,5.0431,5.0269,5.0251,5.0233,5.0192,5.0413,5.0413,5.059,5.0592,5.0593,4.8344,4.8431,4.8567,4.8734,4.8852,4.886,4.8994,4.9092,4.9241,4.9362,4.9491,4.9676,4.983,4.9943,5.0101,5.0188,5.02,5.0226,5.022,5.0239,5.0069,5.0025,5.0214,5.0214,5.0213,5.0213,5.0213,5.0213,4.8136,4.8241,4.8372,4.8521,4.862,4.8732,4.8843,4.8928,4.9063,4.9232,4.927,4.944,4.9572,4.9788,4.9874,5.0009,4.999,5.0035,5.0047,5.0056,5.006,4.9796,5.0039,5.0038,5.0038,5.0038,5.0038,0,4.7999,4.8036,4.817,4.832,4.8431,4.8553,4.8673,4.8743,4.8839,4.8947,4.9108,4.921,4.9411,4.9569,4.9729,4.981,4.9829,4.9837,4.9869,4.9852,4.9816,4.9837,4.9555,4.9829,4.9828,4.9827,4.9826,4.9825,4.7792,4.7909,4.8072,4.8159,4.8237,4.8377,4.8472,4.8548,4.8645,4.8805,4.8896,4.9055,4.9185,4.9436,4.9536,4.9687,4.9698,4.9796,4.9721,4.97,4.9699,4.9691,4.9703,4.9809,4.9811,4.9813,4.9814,0,4.7671,4.7755,4.7953,4.8103,4.8144,4.8263,4.8392,4.8501,4.8572,4.8733,4.8775,4.8887,4.9044,4.9129,4.9326,4.9366,4.9565,4.9573,4.952,4.9526,4.9622,4.9612,4.9922,4.9967,4.974,4.9742,4.9744,0,4.7527,4.7677,4.7794,4.7904,4.8075,4.8146,4.8313,4.839,4.8504,4.8631,4.8666,4.8784,4.8874,4.9006,4.9064,4.9243,4.928,4.9321,4.9334,4.9317,4.9312,4.9369,4.9358,4.9361,4.9359,4.9358,4.9356,0,4.7326,4.7565,4.7745,4.7813,4.7988,4.8071,4.8148,4.8275,4.8367,4.8501,4.8561,4.8712,4.8794,4.8911,4.8984,4.893,4.9205,4.9145,4.9246,4.9244,4.9301,4.9297,4.9552,4.9354,4.9354,4.9353,4.9353,0,4.7222,4.7353,4.7601,4.7747,4.7807,4.7926,4.8078,4.8199,4.8331,4.8375,4.848,4.8513,4.8675,4.861,4.8836,4.8743,4.8823,4.8877,4.8886,4.8904,4.8828,4.8959,4.9194,4.9222,4.8923,4.892,4.8917,0,4.697,4.7242,4.7304,4.7538,4.7675,4.7703,4.7837,4.7952,4.8022,4.8149,4.8227,4.8372,4.8341,4.8398,4.8499,4.8584,4.8704,4.8571,4.8755,4.8761,4.8718,4.8935,4.8948,4.9134,4.8872,4.8877,4.888,0,4.6784,4.6993,4.7031,4.7111,4.7274,4.7389,4.7542,4.7701,4.7782,4.7908,4.8039,4.8245,4.823,4.8324,4.8366,4.8466,4.8625,4.8436,4.8441,4.8467,4.8857,4.8868,4.8899,4.8632,4.8637,4.8642,4.8845,0,4.6607,4.6754,4.6858,4.7033,4.7135,4.7286,4.7373,4.7468,4.7498,4.7567,4.7761,4.7878,4.8041,4.8098,4.8128,4.8331,4.831,4.8292,4.8233,4.8375,4.8444,4.8472,4.8123,4.8122,4.8121,4.812,0,0,4.6344,4.6555,4.6618,4.6768,4.6858,4.6883,4.7037,4.7128,4.731,4.7372,4.734,4.7647,4.7743,4.797,4.8021,4.8087,4.8131,4.8078,4.8307,4.8327,4.8346,4.8419,4.8447,4.8118,4.8118,4.8117,4.8117,0,4.6297,4.6392,4.6542,4.6638,4.6783,4.6848,4.6884,4.7032,4.7083,4.7273,4.7292,4.7419,4.7662,4.7762,4.7844,4.8053,4.806,4.8096,4.8179,4.8293,4.8315,4.8335,4.841,4.8436,4.8114,4.8115,4.8115,0,4.6129,4.6237,4.6318,4.6522,4.6616,4.6757,4.6716,4.6866,4.6971,4.6992,4.718,4.7257,4.7397,4.76,4.7694,4.7668,4.7991,4.7904,4.7913,4.7925,4.804,4.8066,4.8089,4.7783,4.7781,4.778,0,0,4.6076,4.6212,4.635,4.6518,4.6576,4.6675,4.6758,4.6795,4.6919,4.6969,4.7067,4.7188,4.733,4.7422,4.756,4.777,4.7805,4.7859,4.7875,4.7888,4.7906,4.8024,4.805,4.7774,4.7774,4.7774,0,0,4.6051,4.6217,4.6224,4.6429,4.6546,4.6694,4.6793,4.6806,4.6938,4.693,4.7002,4.7037,4.7228,4.7302,4.7215,4.754,4.7481,4.7503,4.7484,4.7505,4.7521,4.7499,4.719,0,0,0,0,0,4.6046,4.6197,4.6201,4.6248,4.6506,4.6691,4.6725,4.6786,4.6742,4.682,4.6904,4.6906,4.727,4.7195,4.7241,4.7337,4.77,4.7713,4.7726,4.7751,4.7772,4.779,0,0,0,0,0,0,4.6065,4.6122,4.6197,4.635,4.6409,4.6686,4.6626,4.6647,4.6735,4.6733,4.689,4.6911,4.6967,4.7175,4.7216,4.7306,4.7176,4.7705,4.7717,4.7727,4.7759,4.7776,4.779,0,0,0,0,0,4.608,4.6126,4.6522,4.6349,4.64,4.6517,4.662,4.6637,4.6707,4.6837,4.6858,4.6745,4.6968,4.7007,4.72,4.7286,4.7149,4.7164,4.7713,4.7721,4.7729,4.7767,0,0,0,0,0,0,4.6092,4.6144,4.6534,4.6552,4.6296,4.6503,4.6537,4.6629,4.6807,4.683,4.6696,4.6692,4.6971,4.7,4.703,4.7276,4.7126,4.7141,4.7151,4.7719,4.7726,4.7732,0,0,0,0,0,0,4.6119,4.6159,4.6543,4.6473,4.6483,4.6489,4.652,4.6693,4.6809,4.6656,4.6658,4.6692,4.6927,4.6996,4.702,4.7287,4.7108,4.7123,4.7133,4.714,4.7725,4.773,0,0,0,0,0,0,4.6137,4.6171,4.6468,4.6476,4.6485,4.669,4.6644,4.6904,4.6747,4.6648,4.6735,4.6729,4.6923,4.6947,4.7012,4.727,4.7283,4.7109,4.7119,4.7126,4.7131,0,0,0,0,0,0,0,4.6152,4.591,4.6428,4.648,4.6487,4.6717,4.6722,4.6726,4.6746,4.6741,4.6736,4.6731,4.7025,4.7041,4.7057,4.7256,0,0,4.7107,4.7115,0,0,0,0,0,0,0,0,4.5898,4.5907,4.6429,4.6432,4.6436,4.6717,4.6721,4.6725,4.6745,4.6741,4.6737,4.6733,4.7029,4.7042,4.7055,0,0,0,0,0,0,0,0,0,0,0,0,0,0,0,4.6429,4.6432,0,4.6718,4.6721,4.6725,4.6744,4.6741,4.6738,4.6735,4.7033,4.7044,4.7054,0,0,0,0,0,0,0,0,0,0,0,0,0,0,0,0,0,0,0,0,0,0,0,0,0,0,0,0,0,0,0,0,0,0,0,0,0,0,0,0,0,0,0,0,0,0,0,0,0,0,0,0,0,0,0,0,0,0,0,0,0,0,0,0,0,0,0,0,0]}],[{"header":{"parameterUnit":"kt","parameterCategory":2,"dx":1,"dy":1,"la1":30.253999710083008,"la2":30.299108505249023,"lo1":-89.0895004272461,"lo2":-89.04439544677734,"nx":28,"ny":28,"refTime":"2022-10-30T21:00:00:Z","depth":0,"parameterNumber":2,"parameterNumberName":"V-component_of_WINDS"},"data":[-2.553,-2.56,-2.5623,-2.5712,-2.5748,-2.5813,-2.5844,-2.5886,-2.5926,-2.6007,-2.6057,-2.6088,-2.6136,-2.6203,-2.6259,-2.6271,-2.6293,-2.6301,-2.6314,-2.6257,-2.6251,-2.6245,-2.6229,-2.6305,-2.6306,-2.6368,-2.6369,-2.6369,-2.5488,-2.5523,-2.5578,-2.5646,-2.5692,-2.5699,-2.5753,-2.5792,-2.585,-2.59,-2.5951,-2.6024,-2.6085,-2.6132,-2.6194,-2.6227,-2.6233,-2.6242,-2.6239,-2.6247,-2.6188,-2.6171,-2.6236,-2.6236,-2.6236,-2.6236,-2.6236,-2.6236,-2.5415,-2.5456,-2.551,-2.5569,-2.561,-2.5655,-2.5698,-2.5734,-2.5788,-2.5855,-2.5873,-2.5939,-2.5993,-2.608,-2.6114,-2.6167,-2.6161,-2.6178,-2.6182,-2.6185,-2.6185,-2.6091,-2.6179,-2.6179,-2.6179,-2.6179,-2.6179,0,-2.5369,-2.5385,-2.5439,-2.5499,-2.5543,-2.5593,-2.5641,-2.5669,-2.5711,-2.5754,-2.5817,-2.5857,-2.5937,-2.6,-2.6063,-2.6096,-2.6106,-2.611,-2.6122,-2.6113,-2.6097,-2.6105,-2.6007,-2.6107,-2.6106,-2.6106,-2.6106,-2.6106,-2.5296,-2.5341,-2.5409,-2.5444,-2.5476,-2.5531,-2.5569,-2.5603,-2.5641,-2.5707,-2.5741,-2.5804,-2.5856,-2.5954,-2.5996,-2.6056,-2.6061,-2.6096,-2.607,-2.606,-2.606,-2.6056,-2.6061,-2.61,-2.6101,-2.6101,-2.6102,0,-2.5253,-2.529,-2.5367,-2.543,-2.5447,-2.5493,-2.5547,-2.5589,-2.5619,-2.5682,-2.5698,-2.5746,-2.5808,-2.5844,-2.5922,-2.5939,-2.6015,-2.6019,-2.5996,-2.5998,-2.6033,-2.6029,-2.6141,-2.6157,-2.608,-2.6081,-2.6081,0,-2.5205,-2.5263,-2.5314,-2.5357,-2.5423,-2.5455,-2.5519,-2.5552,-2.5598,-2.5648,-2.5665,-2.5711,-2.575,-2.5802,-2.5827,-2.5896,-2.5911,-2.5927,-2.5933,-2.5925,-2.5922,-2.5944,-2.5939,-2.5945,-2.5945,-2.5944,-2.5944,0,-2.5132,-2.5228,-2.5298,-2.5326,-2.5398,-2.543,-2.5462,-2.5514,-2.5551,-2.5604,-2.5628,-2.5689,-2.5721,-2.5768,-2.5799,-2.5779,-2.5884,-2.5863,-2.59,-2.59,-2.592,-2.5918,-2.601,-2.5943,-2.5943,-2.5942,-2.5942,0,-2.5098,-2.5151,-2.5247,-2.5308,-2.5331,-2.5378,-2.5439,-2.5487,-2.5541,-2.5559,-2.5602,-2.5617,-2.568,-2.5657,-2.5745,-2.5711,-2.5742,-2.5764,-2.5767,-2.5773,-2.5746,-2.5791,-2.5877,-2.5887,-2.5781,-2.578,-2.5779,0,-2.5003,-2.5111,-2.5138,-2.523,-2.5284,-2.5299,-2.5351,-2.5398,-2.5427,-2.5477,-2.551,-2.5567,-2.5557,-2.558,-2.5619,-2.5654,-2.5699,-2.565,-2.5721,-2.5723,-2.5704,-2.5784,-2.5787,-2.5855,-2.5762,-2.5764,-2.5765,0,-2.4934,-2.5022,-2.5036,-2.5068,-2.5135,-2.5181,-2.5241,-2.5305,-2.5337,-2.5388,-2.5439,-2.5521,-2.5516,-2.5554,-2.5572,-2.5611,-2.567,-2.5601,-2.5603,-2.5611,-2.5757,-2.5759,-2.5771,-2.5674,-2.5676,-2.5678,-2.5752,0,-2.4872,-2.4931,-2.4971,-2.5042,-2.5083,-2.5142,-2.518,-2.5218,-2.5231,-2.526,-2.5336,-2.5384,-2.5449,-2.5471,-2.5485,-2.5562,-2.5554,-2.5549,-2.5528,-2.558,-2.5606,-2.5616,-2.5487,-2.5487,-2.5486,-2.5486,0,0,-2.4772,-2.4856,-2.4884,-2.4944,-2.4979,-2.4993,-2.5053,-2.509,-2.5164,-2.5189,-2.5177,-2.5299,-2.5338,-2.5426,-2.5446,-2.5472,-2.5489,-2.5469,-2.5555,-2.5563,-2.557,-2.5597,-2.5607,-2.5485,-2.5485,-2.5485,-2.5485,0,-2.4756,-2.4796,-2.4855,-2.4894,-2.4953,-2.4981,-2.4995,-2.5056,-2.5077,-2.5152,-2.5162,-2.5212,-2.5308,-2.5348,-2.5381,-2.546,-2.5464,-2.5477,-2.5507,-2.5551,-2.5559,-2.5566,-2.5593,-2.5603,-2.5484,-2.5484,-2.5484,0,-2.4694,-2.4739,-2.4771,-2.4854,-2.4892,-2.4948,-2.4935,-2.4994,-2.5036,-2.5047,-2.5121,-2.5153,-2.5209,-2.5288,-2.5325,-2.5315,-2.5439,-2.5407,-2.541,-2.5414,-2.5459,-2.5468,-2.5477,-2.5364,-2.5363,-2.5362,0,0,-2.4675,-2.4729,-2.4787,-2.4853,-2.4877,-2.4918,-2.4952,-2.4968,-2.5018,-2.5038,-2.5078,-2.5127,-2.5183,-2.522,-2.5275,-2.5356,-2.537,-2.539,-2.5396,-2.5401,-2.5407,-2.5453,-2.5462,-2.536,-2.536,-2.536,0,0,-2.4666,-2.4735,-2.474,-2.4821,-2.4868,-2.4929,-2.4968,-2.4975,-2.5027,-2.5025,-2.5055,-2.5069,-2.5144,-2.5174,-2.5141,-2.5267,-2.5246,-2.5254,-2.5244,-2.5252,-2.5258,-2.5248,-2.5133,0,0,0,0,0,-2.4668,-2.4727,-2.473,-2.4749,-2.4853,-2.4928,-2.4941,-2.4967,-2.4951,-2.4982,-2.5016,-2.5018,-2.5162,-2.5134,-2.5152,-2.5188,-2.5332,-2.5337,-2.5342,-2.5348,-2.5356,-2.5362,0,0,0,0,0,0,-2.4676,-2.4699,-2.4729,-2.4791,-2.4815,-2.4926,-2.4904,-2.4913,-2.4949,-2.4948,-2.5012,-2.502,-2.5044,-2.5126,-2.5142,-2.5176,-2.5128,-2.5334,-2.5338,-2.5342,-2.5351,-2.5357,-2.5363,0,0,0,0,0,-2.4682,-2.4701,-2.4861,-2.4791,-2.4812,-2.4861,-2.4902,-2.491,-2.4938,-2.4991,-2.5,-2.4954,-2.5044,-2.506,-2.5136,-2.5168,-2.5117,-2.5123,-2.5337,-2.534,-2.5343,-2.5354,0,0,0,0,0,0,-2.4687,-2.4708,-2.4866,-2.4873,-2.477,-2.4855,-2.4869,-2.4906,-2.4979,-2.4988,-2.4934,-2.4933,-2.5045,-2.5057,-2.5069,-2.5164,-2.5108,-2.5114,-2.5118,-2.5339,-2.5342,-2.5344,0,0,0,0,0,0,-2.4698,-2.4714,-2.487,-2.4842,-2.4847,-2.485,-2.4862,-2.493,-2.4979,-2.4918,-2.4919,-2.4933,-2.5028,-2.5056,-2.5065,-2.517,-2.5101,-2.5107,-2.5111,-2.5113,-2.5342,-2.5344,0,0,0,0,0,0,-2.4705,-2.4719,-2.4841,-2.4844,-2.4848,-2.4931,-2.491,-2.5016,-2.4956,-2.4915,-2.4951,-2.4949,-2.5026,-2.5036,-2.5062,-2.5164,-2.5169,-2.5101,-2.5105,-2.5108,-2.511,0,0,0,0,0,0,0,-2.4711,-2.4613,-2.4823,-2.4845,-2.4848,-2.494,-2.4942,-2.4944,-2.4955,-2.4953,-2.4951,-2.495,-2.5068,-2.5074,-2.5081,-2.5158,0,0,-2.5101,-2.5103,0,0,0,0,0,0,0,0,-2.4608,-2.4612,-2.4823,-2.4824,-2.4826,-2.4941,-2.4942,-2.4944,-2.4955,-2.4953,-2.4952,-2.495,-2.507,-2.5075,-2.508,0,0,0,0,0,0,0,0,0,0,0,0,0,0,0,-2.4823,-2.4824,0,-2.4941,-2.4942,-2.4943,-2.4955,-2.4953,-2.4952,-2.4951,-2.5071,-2.5075,-2.508,0,0,0,0,0,0,0,0,0,0,0,0,0,0,0,0,0,0,0,0,0,0,0,0,0,0,0,0,0,0,0,0,0,0,0,0,0,0,0,0,0,0,0,0,0,0,0,0,0,0,0,0,0,0,0,0,0,0,0,0,0,0,0,0,0,0,0,0,0]}]]]